When you browse on this site, cookies collect data to enhance your experience and personalize the content and advertising you see.
Visit our Privacy Policy to learn more. By continuing to use the site, you agree to this use of cookies and data.
  • In Lithuania
  • List of Countries
  • For 7 days
  • Water Temperature
  • Satellite Maps
  • Weather Map
  • Weather Widgets
  • user-avatar
    Login

    Hourly Weather San Miguel de Tucumán

    Today, 17 December, Monday

    Time Temperature Precipitation Wind Pressure Humidity
    00:00 +27°C° 0.3 mm 1 mps 717 mmHg 78%
    01:00 +27°C° 0.3 mm 1 mps 717 mmHg 77%
    02:00 +27°C° 0.3 mm 1 mps 716 mmHg 76%
    03:00 +27°C° 0 mm 1 mps 716 mmHg 75%
    04:00 +26°C° 0 mm 1 mps 716 mmHg 74%
    05:00 +26°C° 0 mm 1 mps 716 mmHg 72%
    06:00 +28°C° 0 mm 1 mps 717 mmHg 68%
    07:00 +29°C° 0 mm 1 mps 717 mmHg 64%
    08:00 +30°C° 0 mm 1 mps 718 mmHg 60%
    09:00 +32°C° 0 mm 1 mps 718 mmHg 55%
    10:00 +34°C° 0 mm 1 mps 718 mmHg 50%
    11:00 +35°C° 0 mm 1 mps 718 mmHg 45%
    12:00 +36°C° 0.5 mm 2 mps 718 mmHg 45%
    13:00 +36°C° 0.5 mm 2 mps 717 mmHg 45%
    14:00 +36°C° 0.5 mm 2 mps 717 mmHg 45%
    15:00 +35°C° 0.6 mm 2 mps 717 mmHg 48%
    16:00 +34°C° 0.6 mm 2 mps 717 mmHg 52%
    17:00 +32°C° 0.6 mm 2 mps 716 mmHg 56%
    18:00 +31°C° 0.4 mm 2 mps 717 mmHg 60%
    19:00 +29°C° 0.4 mm 2 mps 717 mmHg 65%
    20:00 +28°C° 0.4 mm 2 mps 717 mmHg 69%
    21:00 +27°C° 0.2 mm 2 mps 717 mmHg 69%
    22:00 +27°C° 0.2 mm 2 mps 718 mmHg 69%
    23:00 +27°C° 0.2 mm 2 mps 719 mmHg 69%

    Tomorrow, 18 December, Tuesday

    Time Temperature Precipitation Wind Pressure Humidity
    00:00 +26°C° 1.1 mm 2 mps 719 mmHg 75%
    01:00 +26°C° 1.1 mm 2 mps 718 mmHg 80%
    02:00 +25°C° 1.1 mm 2 mps 718 mmHg 86%
    03:00 +25°C° 0.7 mm 2 mps 718 mmHg 87%
    04:00 +25°C° 0.7 mm 2 mps 719 mmHg 89%
    05:00 +25°C° 0.7 mm 2 mps 719 mmHg 90%
    06:00 +25°C° 2.2 mm 2 mps 719 mmHg 90%
    07:00 +25°C° 2.2 mm 2 mps 720 mmHg 90%
    08:00 +25°C° 2.2 mm 2 mps 721 mmHg 90%
    09:00 +25°C° 2.5 mm 2 mps 721 mmHg 90%
    10:00 +25°C° 2.5 mm 2 mps 721 mmHg 90%
    11:00 +25°C° 2.5 mm 2 mps 721 mmHg 91%
    12:00 +25°C° 1.6 mm 2 mps 720 mmHg 89%
    13:00 +26°C° 1.6 mm 3 mps 720 mmHg 87%
    14:00 +26°C° 1.6 mm 3 mps 719 mmHg 86%
    15:00 +26°C° 1.5 mm 3 mps 719 mmHg 87%
    16:00 +26°C° 1.5 mm 3 mps 719 mmHg 88%
    17:00 +25°C° 1.5 mm 2 mps 719 mmHg 89%
    18:00 +25°C° 0.5 mm 2 mps 719 mmHg 91%
    19:00 +24°C° 0.5 mm 1 mps 720 mmHg 92%
    20:00 +24°C° 0.5 mm 1 mps 720 mmHg 94%
    21:00 +22°C° 0.2 mm 0 mps 720 mmHg 93%
    22:00 +22°C° 0.2 mm 0 mps 721 mmHg 92%
    23:00 +22°C° 0.2 mm 0 mps 721 mmHg 92%

    Day after tomorrow, 19 December, Wednesday

    Time Temperature Precipitation Wind Pressure Humidity
    00:00 +21°C° 0 mm 0 mps 720 mmHg 92%
    01:00 +23°C° 0 mm 1 mps 719 mmHg 92%
    02:00 +23°C° 0 mm 1 mps 719 mmHg 93%
    03:00 +23°C° 0 mm 1 mps 718 mmHg 93%
    04:00 +23°C° 0 mm 1 mps 718 mmHg 93%
    05:00 +23°C° 0 mm 1 mps 718 mmHg 93%
    06:00 +23°C° 0 mm 1 mps 718 mmHg 90%
    07:00 +24°C° 0 mm 1 mps 718 mmHg 87%
    08:00 +25°C° 0 mm 1 mps 718 mmHg 84%
    09:00 +26°C° 0 mm 1 mps 718 mmHg 79%
    10:00 +27°C° 0 mm 2 mps 718 mmHg 74%
    11:00 +29°C° 0 mm 2 mps 717 mmHg 68%
    12:00 +29°C° 0 mm 2 mps 717 mmHg 67%
    13:00 +30°C° 0 mm 2 mps 716 mmHg 67%
    14:00 +30°C° 0 mm 3 mps 715 mmHg 66%
    15:00 +30°C° 0.1 mm 3 mps 714 mmHg 69%
    16:00 +30°C° 0.1 mm 3 mps 714 mmHg 71%
    17:00 +29°C° 0.1 mm 3 mps 713 mmHg 74%
    18:00 +28°C° 0.1 mm 2 mps 714 mmHg 80%
    19:00 +27°C° 0.1 mm 2 mps 714 mmHg 85%
    20:00 +26°C° 0.1 mm 1 mps 714 mmHg 91%
    21:00 +25°C° 0 mm 1 mps 715 mmHg 90%
    22:00 +25°C° 0 mm 1 mps 715 mmHg 90%
    23:00 +25°C° 0 mm 1 mps 715 mmHg 90%

    20 December, Thursday

    Time Temperature Precipitation Wind Pressure Humidity
    00:00 +24°C° 0 mm 1 mps 715 mmHg 87%
    01:00 +24°C° 0 mm 1 mps 714 mmHg 84%
    02:00 +24°C° 0 mm 1 mps 714 mmHg 81%
    03:00 +24°C° 0.2 mm 1 mps 714 mmHg 79%
    04:00 +24°C° 0.2 mm 1 mps 714 mmHg 77%
    05:00 +24°C° 0.2 mm 1 mps 714 mmHg 74%
    06:00 +25°C° 1.3 mm 1 mps 715 mmHg 75%
    07:00 +26°C° 1.3 mm 1 mps 716 mmHg 76%
    08:00 +27°C° 1.3 mm 1 mps 717 mmHg 76%
    09:00 +29°C° 0 mm 2 mps 717 mmHg 69%
    10:00 +30°C° 0 mm 2 mps 717 mmHg 62%
    11:00 +33°C° 0 mm 3 mps 717 mmHg 55%
    12:00 +33°C° 0.3 mm 3 mps 716 mmHg 56%
    13:00 +33°C° 0.3 mm 3 mps 716 mmHg 56%
    14:00 +34°C° 0.3 mm 3 mps 715 mmHg 56%
    15:00 +33°C° 1.9 mm 3 mps 715 mmHg 61%
    16:00 +31°C° 1.9 mm 2 mps 715 mmHg 65%
    17:00 +30°C° 1.9 mm 2 mps 715 mmHg 69%
    18:00 +29°C° 2.4 mm 2 mps 715 mmHg 75%
    19:00 +27°C° 2.4 mm 2 mps 716 mmHg 81%
    20:00 +25°C° 2.4 mm 1 mps 717 mmHg 86%
    21:00 +25°C° 0.4 mm 2 mps 717 mmHg 85%
    22:00 +25°C° 0.4 mm 2 mps 717 mmHg 84%
    23:00 +24°C° 0.4 mm 2 mps 718 mmHg 83%

    21 December, Friday

    Time Temperature Precipitation Wind Pressure Humidity
    00:00 +24°C° 0 mm 2 mps 718 mmHg 81%
    01:00 +24°C° 0 mm 2 mps 717 mmHg 79%
    02:00 +24°C° 0 mm 2 mps 717 mmHg 77%
    03:00 +24°C° 0.1 mm 1 mps 717 mmHg 77%
    04:00 +24°C° 0.1 mm 1 mps 718 mmHg 77%
    05:00 +24°C° 0.1 mm 1 mps 718 mmHg 77%
    06:00 +25°C° 0.5 mm 1 mps 719 mmHg 77%
    07:00 +26°C° 0.5 mm 1 mps 719 mmHg 77%
    08:00 +27°C° 0.5 mm 1 mps 720 mmHg 77%
    09:00 +28°C° 0.7 mm 1 mps 719 mmHg 74%
    10:00 +29°C° 0.7 mm 1 mps 719 mmHg 70%
    11:00 +30°C° 0.7 mm 1 mps 719 mmHg 67%
    12:00 +31°C° 0.8 mm 2 mps 718 mmHg 64%
    13:00 +31°C° 0.8 mm 2 mps 718 mmHg 62%
    14:00 +32°C° 0.8 mm 2 mps 717 mmHg 59%
    15:00 +31°C° 0.9 mm 2 mps 717 mmHg 62%
    16:00 +31°C° 0.9 mm 2 mps 716 mmHg 65%
    17:00 +30°C° 0.9 mm 2 mps 716 mmHg 69%
    18:00 +29°C° 0.1 mm 2 mps 717 mmHg 73%
    19:00 +27°C° 0.1 mm 1 mps 717 mmHg 77%
    20:00 +26°C° 0.1 mm 1 mps 717 mmHg 81%
    21:00 +26°C° 0 mm 1 mps 718 mmHg 81%
    22:00 +25°C° 0 mm 1 mps 718 mmHg 82%
    23:00 +25°C° 0 mm 1 mps 718 mmHg 82%

    22 December, Saturday

    Time Temperature Precipitation Wind Pressure Humidity
    00:00 +24°C° 0 mm 1 mps 718 mmHg 82%
    01:00 +24°C° 0 mm 1 mps 717 mmHg 83%
    02:00 +24°C° 0 mm 1 mps 717 mmHg 83%
    03:00 +24°C° 0 mm 1 mps 717 mmHg 83%
    04:00 +23°C° 0 mm 1 mps 717 mmHg 84%
    05:00 +23°C° 0 mm 1 mps 718 mmHg 84%
    06:00 +25°C° 0 mm 1 mps 718 mmHg 79%
    07:00 +26°C° 0 mm 1 mps 719 mmHg 74%
    08:00 +28°C° 0 mm 1 mps 719 mmHg 70%
    09:00 +29°C° 0.4 mm 2 mps 719 mmHg 66%
    10:00 +30°C° 0.4 mm 2 mps 719 mmHg 63%
    11:00 +32°C° 0.4 mm 2 mps 719 mmHg 60%
    12:00 +32°C° 0.9 mm 2 mps 718 mmHg 61%
    13:00 +32°C° 0.9 mm 2 mps 718 mmHg 62%
    14:00 +33°C° 0.9 mm 3 mps 717 mmHg 64%
    15:00 +32°C° 1.3 mm 2 mps 717 mmHg 65%
    16:00 +32°C° 1.3 mm 2 mps 717 mmHg 67%
    17:00 +31°C° 1.3 mm 2 mps 716 mmHg 68%
    18:00 +30°C° 0.5 mm 1 mps 717 mmHg 72%
    19:00 +28°C° 0.5 mm 1 mps 717 mmHg 75%
    20:00 +27°C° 0.5 mm 1 mps 717 mmHg 79%
    21:00 +26°C° 0 mm 1 mps 718 mmHg 79%
    22:00 +26°C° 0 mm 1 mps 718 mmHg 80%
    23:00 +25°C° 0 mm 1 mps 719 mmHg 81%
    Show more